Regional Weather Roundup
Issued by NWS Grand Forks, ND

Home | Current Version | Previous Version | Text Only | Print | Product List | Glossary Off
Versions: 1 2 3 4 5 6 7 8 9 10 11 12 13 14 15 16 17 18 19 20 21 22 23 24 25 26 27 28 29 30 31 32 33 34 35 36 37 38 39 40 41 42 43 44 45 46 47 48 49 50

000
ASUS43 KFGF 180131
RWRFGF
PRAIRIE TO PINES  WEATHER ROUNDUP
NATIONAL WEATHER SERVICE EASTERN NORTH DAKOTA/GRAND FORKS ND
800 PM CDT TUE OCT 17 2017

 **SATELLITE DATA USED TO AUGMENT SKY COVER AT AUTOMATED STATIONS**
 *****  WEATHER ACROSS EASTERN NORTH DAKOTA  *****

CITY           SKY/WX    TMP DP  RH WIND       PRES   REMARKS
GRAND FORKS    FAIR      57  34  41 S9        29.64F
GRAND FRKS AFB FAIR      64  30  28 S12       29.64F
DEVILS LAKE    FAIR      63  37  38 S10       29.64F
FARGO          FAIR      67  42  40 S13       29.72F
WAHPETON ARPT  NOT AVBL
$$

 ***** WEATHER ACROSS CENTRAL AND WESTERN NORTH DAKOTA  *****

CITY           SKY/WX    TMP DP  RH WIND       PRES   REMARKS
BISMARCK       FAIR      64  27  24 S6        29.70F
MINOT          FAIR      66  28  24 S13       29.57F
JAMESTOWN      FAIR      55  33  43 S10       29.70F
MINOT AFB      FAIR      63  29  28 SW13      29.55F
GARRISON         N/A     62  32  32 SW14      29.64F
WILLISTON      FAIR      63  27  25 S7        29.57F
DICKINSON      FAIR      55  25  31 SW14      29.69F
HETTINGER      FAIR      57  24  28 S12       29.77F
$$

 *****  OTHER AIRPORT OBSERVATIONS IN OUR AREA  *****

CITY           SKY/WX    TMP DP  RH WIND       PRES   REMARKS
WALHALLA       FAIR     N/A N/A N/A SW8       29.56F
GRAFTON AIRPOR FAIR      54  32  43 S10       29.62F
VALLEY CITY AR FAIR      55  36  47 S8        29.72F
CANDO          FAIR      61  32  33 S10       29.61F
CAVALIER APRT  FAIR      64  37  36 S12       29.58F
GWINNER        CLEAR     59  39  47 S13       29.75F
SHEYENNE NWR     N/A     58  42  56 S8        29.95S
ROLLA          FAIR      61  30  31 SW22      29.56F
 ***** THE ABOVE OBSERVATIONS ARE NON NWS ARE NOT QUALITY
       CONTROLLED AND MAY MIS-REPORT RAIN FOR SNOW...
$$

  *****  WEATHER ACROSS NORTHERN MINNESOTA  *****

CITY           SKY/WX    TMP DP  RH WIND       PRES   REMARKS
FLAG ISLAND    FAIR      52  46  82 S7        29.63F
WARROAD        FAIR      63  43  48 S7        29.64F
ROSEAU         FAIR      61  45  55 S14       29.63F
HALLOCK        FAIR      57  28  33 S10       29.60F
THF RVR FALLS  FAIR      61  39  44 S12       29.69F
BAUDETTE       FAIR      60  38  43 S8        29.69F
WASKISH        FAIR      61  39  44 S6        29.72F
CROOKSTON      FAIR      63  41  45 S14       29.68F
STEPHEN NDAWN    N/A     63  30  29 S12         N/A
GREENBUSH NDAW   N/A     55  39  54 S7          N/A
$$
  *****  WEATHER ACROSS CENTRAL AND WEST MINNESOTA  *****

CITY           SKY/WX    TMP DP  RH WIND       PRES   REMARKS
FOSSTON        FAIR      61  37  41 S15       29.73F
BEMIDJI        FAIR      60  39  45 S9        29.75F
PARK RAPIDS    FAIR      59  41  51 S12       29.79F
ELBOW LAKE     FAIR      56  43  62 S12       29.82F
WADENA         FAIR      55  43  62 S7        29.81F
DETROIT LAKES  FAIR      61  41  48 S8        29.79S
MOORHEAD       FAIR      61  43  51 S13       29.74F
FERGUS FALLS   FAIR      55  43  62 S9        29.80S
MORRIS MN      FAIR      54  43  66 S6        29.83S
STAPLES        FAIR      54  37  54 S6        29.83S
$$
  *****  WEATHER ELSEWHERE ACROSS MINNESOTA  *****

CITY           SKY/WX    TMP DP  RH WIND       PRES   REMARKS
DULUTH         FAIR      55  40  56 S9        29.87F
INTRNTL FALLS  FAIR      60  37  42 S6        29.74S
ELY            FAIR      57  36  44 S7        29.83F
CLOQUET        FAIR      57  37  47 S3        29.87F
WHEATON        FAIR      63  39  42 S12       29.82S
BRAINERD       FAIR      58  39  49 S9        29.85S
HIBBING        FAIR      56  37  49 S5        29.83S
ALEXANDRIA     FAIR      61  39  44 S12       29.86S
SAINT CLOUD    FAIR      58  43  57 SE5       29.88S
MINNEAPOLIS    FAIR      65  43  44 S7        29.92S
$$

  *****  WEATHER ACROSS SOUTH DAKOTA  *****

CITY           SKY/WX    TMP DP  RH WIND       PRES   REMARKS
SIOUX FALLS    FAIR      60  42  51 S10       29.91S
BROOKINGS      FAIR      62  40  44 S9        29.90R
WATERTOWN      FAIR      58  42  55 S7        29.86S
HURON          FAIR      65  41  41 S8        29.84S
SISSETON         N/A     62  44  51 SW12      29.80S
ABERDEEN       FAIR      60  40  47 S7        29.81S
MITCHELL       FAIR      62  42  47 S12       29.88S
PIERRE         FAIR      62  36  37 S9        29.81S
MOBRIDGE       FAIR      64  42  44 S8        29.76F
RAPID CITY     FAIR      52  27  38 NW8       29.85R
$$

  *****  SOME WEATHER IN NEARBY STATES *****

CITY           SKY/WX    TMP DP  RH WIND       PRES   REMARKS
GLASGOW MT     FAIR      69  23  17 SW13      29.51F
GREAT FALLS MT FAIR      66  20  17 SW33G54   29.65R
CHEYENNE WY    FAIR      59  17  19 W7        30.12S
SCOTTSBLUFF NE FAIR      59  24  26 CALM      29.97S
OMAHA NE       FAIR      58  47  66 SE8       30.00R
DES MOINES IA  FAIR      62  45  53 S8        30.04R
DAVENPORT IA   FAIR      57  42  57 S8        30.13R
CHICAGO IL     FAIR      62  41  46 S8        30.12R
EAU CLAIRE WI  FAIR      57  46  66 S6        29.96R
LA CROSSE WI   FAIR      61  48  62 S8        29.99R
$$

  *****  SOME NATIONAL WEATHER *****

CITY           SKY/WX    TMP DP  RH WIND       PRES   REMARKS
LA GUARDIA NY  FAIR      56  41  57 SW7       30.28R
RALEIGH NC     FAIR      48  42  80 NE3       30.33R
ATLANTA GA     FAIR      58  43  57 E8        30.26R
NEW ORLEANS LA FAIR      70  62  76 E3        30.15R
OKLAHOMA CITY  FAIR      56  46  69 SE9       30.11R
ALBUQUERQUE NM FAIR      70  22  16 SW5       30.20R
SALT LAKE CITY MOCLDY    57  36  45 CALM      30.11F
LOS ANGELES CA FAIR      75  56  51 W9        29.91R
BOISE ID       FAIR      59  34  39 W7        30.06R HAZE
SEATTLE WA     MOCLDY    56  41  57 SW9       30.12S
$$

*** WEATHER ACROSS MANITOBA...SASKATCHEWAN AND ONTARIO ***
                ***ONTARIO***

CITY           SKY/WX    TMP DP  RH WIND       PRES   REMARKS
GERALDTON      CLEAR     41  34  75 SE3       29.90S
THUNDER BAY    PTCLDY    48  48 100 NE5       29.87S
SIOUX LOOKOUT  PTCLDY    54  37  54 SE7       29.71F
TORONTO        PTCLDY    57  45  62 W10       30.10R
BIG TROUT LK   PTCLDY    36  32  87 SE6       29.81F
PICKLE LAKE    CLOUDY    39  34  81 SE10      29.79F
DRYDEN         CLEAR     57  39  51 S9        29.69F
KENORA         PTCLDY    59  39  47 S9        29.65
$$
                *** MANITOBA***

CITY           SKY/WX    TMP DP  RH WIND       PRES   REMARKS
BRANDON        PTCLDY    57  36  44 SW10      29.49F
DAUPHIN        CLEAR     64  36  34 SW14G21   29.38F
ISLAND LAKE    MOCLDY    41  36  81 SE17G28   29.61
PILOT MOUND      N/A     59  32  36 SW15        N/A
THE PAS        PTCLDY    48  39  71 SE18      29.26F
THOMPSON       CLOUDY    37  32  81 E7G17     29.49F
WINNIPEG       CLEAR     59  36  41 S12       29.53F
LYNN LAKE      LGT RAIN  34  34 100 E16G22    29.34F WCI  23
CHURCHILL      CLOUDY    25  23  93 S6        29.75F WCI  18
GILLAM         CLOUDY    32  30  93 SE3       29.69S
$$
                ***SASKATCHEWAN***

CITY           SKY/WX    TMP DP  RH WIND       PRES   REMARKS
ESTEVAN        MOCLDY    61  27  27 S14G20    29.48F
KINDERSLEY     LGT RAIN  55  39  54 NW38G68   29.15R
LLOYDMINSTER   LGT RAIN  50  45  81 W36G51    29.05R
PRINCE ALBERT  PTCLDY    59  36  41 S9        29.03F
REGINA         PTCLDY    61  21  21 S14       29.32F
YORKTON        CLEAR     61  32  33 S9        29.31F
N. BATTLEFORD  CLOUDY    70  28  21 SW35G46   28.96F
LA RONGE       CLOUDY    54  39  58 E10G21    29.05F
SASKATOON      MOCLDY    68  21  17 S21G26    29.10F
SWIFT CURRENT  PTCLDY    66  21  18 SW31G40   29.29F
$$
NOTE: THESE ARE AUTOMATED STATIONS WITH LIMITED QUALITY CONTROL
      "FAIR" INDICATES FEW OR NO CLOUDS BELOW 12,000 FEET WITH NO
      SIGNIFICANT WEATHER AND/OR OBSTRUCTIONS TO VISIBILITY.
      SKY/WX - SKY CONDITION AND SIGNIFICANT WEATHER.
      TMP - AIR TEMPERATURE.    DP   - DEWPOINT TEMPERATURE.
      RH  - RELATIVE HUMIDITY.  PRES - PRESSURE.
      HX  - HEAT INDEX.         WCI  - WIND CHILL INDEX.
$




USA.gov is the U.S. government's official web portal to all federal, state and local government web resources and services.